MST,Max TemperatureF,Mean TemperatureF,Min TemperatureF,Max Dew PointF,MeanDew PointF,Min DewpointF,Max Humidity, Mean Humidity, Min Humidity, Max Sea Level PressureIn, Mean Sea Level PressureIn, Min Sea Level PressureIn, Max VisibilityMiles, Mean VisibilityMiles, Min VisibilityMiles, Max Wind SpeedMPH, Mean Wind SpeedMPH, Max Gust SpeedMPH,PrecipitationIn, CloudCover, Events, WindDirDegrees
2012-1-1,32,23,14,12,11,8,80,60,39,30.76,30.67,30.45,10,10,10,20,6,24,0.00,3,,330
2012-1-2,48,28,8,24,16,5,84,61,38,30.74,30.51,30.17,10,10,10,9,4,16,0.00,0,,124
2012-1-3,60,44,28,22,19,15,69,44,19,30.36,30.16,30.04,10,10,10,30,12,41,0.00,0,,294
2012-1-4,59,37,15,22,17,13,92,55,17,30.41,30.32,30.18,10,10,10,21,7,28,0.00,0,,306
2012-1-5,65,47,29,20,18,14,53,34,14,30.18,29.95,29.76,10,10,10,32,12,40,0.00,0,,272
2012-1-6,51,32,13,24,16,8,75,52,28,30.22,30.09,29.85,10,10,10,20,8,25,0.00,2,,1
2012-1-7,40,27,14,19,15,9,73,59,44,30.26,30.13,30.04,10,10,10,16,8,22,0.00,1,,27
2012-1-8,41,26,10,17,12,7,92,61,30,30.34,30.27,30.21,10,10,10,12,5,15,0.00,0,,289
2012-1-9,55,38,21,25,19,13,74,53,32,30.33,30.23,30.12,10,10,10,17,8,22,0.00,0,,297
2012-1-10,59,38,16,30,20,13,84,52,19,30.12,29.92,29.78,10,10,10,23,7,36,0.00,1,,303
2012-1-11,35,21,7,30,10,-7,81,58,35,30.36,30.17,29.89,10,6,1,39,19,49,T,5,Snow,330
2012-1-12,37,21,4,12,4,-4,69,48,26,30.33,30.22,30.09,10,10,10,28,12,33,0.00,4,,295
2012-1-13,47,32,17,13,9,7,67,45,22,30.17,30.07,29.97,10,10,10,26,12,33,0.00,1,,298
2012-1-14,55,32,9,16,11,7,84,50,15,30.22,30.05,29.78,10,10,10,29,6,36,0.00,0,,258
2012-1-15,56,41,26,18,10,5,63,38,12,29.78,29.71,29.60,10,10,10,23,7,28,0.00,0,,270
2012-1-16,26,13,0,13,8,0,88,73,57,30.27,29.92,29.73,10,8,1,17,9,20,0.01,5,Snow,26
2012-1-17,30,10,-11,10,-2,-15,91,62,32,30.40,30.24,30.00,10,10,10,30,10,37,0.00,0,,275
2012-1-18,46,34,22,21,8,-2,35,29,23,29.98,29.79,29.61,10,10,9,41,24,56,0.00,0,,274
2012-1-19,59,35,11,30,18,4,70,49,28,29.83,29.66,29.52,10,10,10,39,17,51,0.00,1,,246
2012-1-20,53,33,13,28,18,6,67,53,38,30.01,29.79,29.45,10,10,10,36,14,49,0.00,0,,42
2012-1-21,57,35,13,27,22,9,80,54,28,29.88,29.49,29.21,10,10,10,17,7,21,T,3,,90
2012-1-22,41,30,19,35,23,12,85,60,35,29.94,29.63,29.21,10,10,9,43,18,55,T,5,Rain-Snow,320
2012-1-23,52,34,15,16,14,10,74,49,24,29.93,29.87,29.79,10,10,10,17,8,23,0.00,0,,285
2012-1-24,39,24,9,27,21,7,92,66,40,30.32,30.11,29.84,10,9,2,21,9,28,0.04,5,Snow,313
2012-1-25,50,29,8,30,20,5,91,64,36,30.23,30.06,29.94,10,10,10,39,16,47,0.00,1,,282
2012-1-26,54,37,20,35,26,19,96,62,28,30.14,29.94,29.72,10,10,7,23,7,30,0.16,2,Rain,227
2012-1-27,40,27,13,31,18,7,89,64,39,30.40,30.16,29.75,10,9,1,31,14,43,0.01,5,Snow,319
2012-1-28,41,27,13,8,5,0,67,43,19,30.39,30.29,30.19,10,10,10,25,12,32,0.00,0,,289
2012-1-29,55,43,31,19,13,7,36,29,22,30.17,30.03,29.83,10,10,10,33,19,41,0.00,2,,265
2012-1-30,56,46,35,21,17,13,53,36,19,29.86,29.78,29.70,10,10,10,37,18,45,0.00,0,,262
2012-1-31,51,38,24,20,15,11,68,44,20,30.12,30.02,29.89,10,10,10,17,7,24,0.00,0,,299